DELTA 1 R/B, 1983

Orbit data source: Space-Track

DELTA 1 R/B, 1983 is space debris in SSO originally from a launch on Thu, 03 Feb 1966 UTC launched from the Air Force Eastern Test Range (AFETR). Debris objects in space refer to the collection of defunct objects orbiting the Earth. Examples of debris include non-operational satellites, rocket bodies, and fragments generated from explosions, collisions, or faulty payload assembly.

Loading next visibility...
Identifier
1983, 1966-008B
Orbit
SSO
Country
Flag of USUS
Related business
Manufacturer
ABL
Mission
Spacecraft
Bus & Motor
ALTAIR, Unknown motor
Mass
60 kg wet, 60 kg dry
Launch date (UTC)
1966-02-03 (60 years ago)
Launch vehicle
Unknown
Launch site
Air Force Eastern Test Range (AFETR)
Object type
Payload
Rocket body
Debris
Shape & HBR
Unknown
Radar Cross Section
Medium (>0.1 m² and <1 m²)

Expand to show TLE details & history
Last TLE update: 23 hours ago

TLE from 23 hours ago
0 DELTA 1 R/B
1  1983U 66008B   26144.17544336  .00000660  00000-0  11858-3 0  9999
2  1983  98.0331  62.0673 0063751 169.8528 190.3981 14.68647671169111
Epoch: 2026-05-24T04:12Z
TLE epoch observation values (Epoch: 2026-05-24T04:12:38.306Z)
Latitude
-0.00004°
Longitude
117.12634°
Altitude
712.575 km
Speed
7.476 km/s
True Right ascension
04h 08m 16s
True Declination
0° 00' 00"
Sunlit
Object was in daylight at epoch
Visualization orbit readout
Latitude
Unknown
Longitude
Unknown
Altitude
Unknown
Speed
Unknown
Apparent Right ascension
Unknown
Apparent Declination
Unknown
Sunlit
N/A
Visualization observer readout
Local Sidereal Time
12:26:28
Azimuth
Unknown
Elevation
Unknown
Doppler factor
Unknown
Orbital elements
Apogee altitude
707.335 km
Perigee altitude
617.566 km
Semi-major axis
7,040.587 km
Eccentricity
0.00638
Inclination
98.0331°
RAAN
62.0673°
Arg. of periapsis
169.8528°
True anomaly
190.26727°
Mean anomaly
190.3981°
Eccentric anomaly
190.33259°
Mean motion
3.67392 °/min
Orbital period
97.99 mins
BSTAR
0.00011858
Loading maneuver chart data...
Computing Atmospheric mass density...
Loading historical data...
Loading historical data...
Loading historical data...
Loading historical data...
Loading historical data...
Loading historical data...
Loading historical data...
Other satellites on launch #8 in the year 1966 (1966-02-03 UTC)

Documentation

Showing up to 5 results
|